Location: Brunembert
(50.7122°N, 1.8935°E)
Time: 09:32:40
(UTC+00:00)

Cosmos 1515 Rocket - Pass Details

Date: 22 April 2021
Orbit: 605 x 630 km, 82.5° (Epoch: 05 May)

Event Time Altitude Azimuth Distance (km) Brightness Sun altitude
Exits shadow 23:19:41 43° 58° (ENE) 885 4.4 -26.4°
Drops below altitude 10° 23:23:10 10° 20° (NNE) 2,015 7.0 -26.5°
Sets 23:25:27 0° 15° (NNE) 2,924 8.1 -26.5°
